N2YJJ-2 Weather Reports


Display with metric or nautical units.
time (UTC)temp
F
wind
direction
speed
MPH
gust
MPH
rain 1hr
in
rain 24hr
in
rain mn
in
humidity
%
barometer
mb
20260504022004 51 251 1.0 3.0 0.00 0.03 0.03 72 1014.0
20260504021002 52 218 2.0 8.0 0.00 0.03 0.03 71 1014.0
20260504020002 51 230 2.0 5.0 0.00 0.03 0.03 69 1014.1
20260504015003 52 221 2.0 12.0 0.00 0.03 0.03 72 1014.1
20260504014002 51 218 2.0 8.0 0.00 0.03 0.03 72 1014.1
20260504013003 51 219 3.0 8.0 0.00 0.03 0.03 73 1014.1
20260504012002 51 237 2.0 6.0 0.01 0.03 0.03 75 1014.1
20260504011002 50 246 3.0 8.0 0.01 0.03 0.03 82 1014.2
20260504010002 49 254 1.0 3.0 0.01 0.03 0.03 89 1014.2
20260504005002 49 238 1.0 7.0 0.01 0.03 0.03 92 1014.1
20260504004002 49 208 1.0 3.0 0.01 0.03 0.03 94 1014.2
20260504003002 49 200 0.0 3.0 0.01 0.03 0.03 93 1014.3
20260504002002 49 200 1.0 2.0 0.00 0.02 0.02 93 1014.3
20260504000002 49 200 0.0 1.0 0.01 0.02 0.02 92 1014.6
20260503235003 50 200 1.0 2.0 0.01 0.02 0.02 92 1014.6
20260503234002 50 221 1.0 2.0 0.01 0.02 0.02 91 1014.9
20260503233003 50 300 1.0 3.0 0.02 0.02 0.02 91 1014.9
20260503231002 51 250 0.0 2.0 0.02 0.02 0.02 89 1015.0
20260503230002 51 250 1.0 3.0 0.01 0.01 0.01 88 1015.0
20260503224003 53 277 1.0 3.0 0.01 0.01 0.01 83 1015.2
20260503223002 54 275 2.0 9.0 0.00 0.00 0.00 78 1015.1
20260503221003 55 263 2.0 7.0 0.00 0.00 0.00 64 1014.6
20260503220003 55 265 2.0 7.0 0.00 0.00 0.00 63 1014.5
20260503214004 54 261 1.0 6.0 0.00 0.00 0.00 63 1014.4
20260503213003 54 200 2.0 10.0 0.00 0.00 0.00 63 1014.3
20260503212004 54 264 2.0 8.0 0.00 0.00 0.00 61 1014.2
20260503210003 55 197 4.0 13.0 0.00 0.00 0.00 61 1014.3
20260503205003 55 254 3.0 12.0 0.00 0.00 0.00 60 1014.3
20260503204003 56 240 7.0 12.0 0.00 0.00 0.00 58 1014.3
20260503202004 56 202 3.0 9.0 0.00 0.00 0.00 57 1014.5
20260503201002 57 231 2.0 9.0 0.00 0.00 0.00 56 1014.7
20260503200003 57 237 3.0 9.0 0.00 0.00 0.00 55 1014.9
20260503195003 57 207 3.0 12.0 0.00 0.00 0.00 54 1015.1
20260503194003 57 250 3.0 12.0 0.00 0.00 0.00 55 1015.4
20260503193003 57 244 5.0 12.0 0.00 0.00 0.00 51 1015.5
20260503191003 58 259 5.0 12.0 0.00 0.00 0.00 50 1015.8
20260503190002 58 265 4.0 18.0 0.00 0.00 0.00 49 1015.9
20260503184003 57 230 5.0 14.0 0.00 0.00 0.00 52 1016.4
20260503183003 56 242 3.0 13.0 0.00 0.00 0.00 55 1016.6
20260503182004 56 255 4.0 14.0 0.00 0.00 0.00 53 1016.7
20260503180003 56 247 5.0 13.0 0.00 0.00 0.00 49 1017.0
20260503175003 56 218 6.0 12.0 0.00 0.00 0.00 48 1017.3
20260503172003 56 184 3.0 12.0 0.00 0.00 0.00 54 1017.7
20260503171004 56 238 3.0 10.0 0.00 0.00 0.00 50 1017.9
20260503151003 54 272 2.0 8.0 0.00 0.00 0.00 59 1018.9
20260503131004 47 222 2.0 7.0 0.00 0.00 0.00 78 1019.8
20260503081001 32 232 0.0 0.0 0.00 0.00 0.00 93 1020.2
20260503072001 33 232 0.0 0.0 0.00 0.00 0.00 92 1020.1
20260503071002 33 232 0.0 0.0 0.00 0.00 0.00 92 1020.2
20260503055001 35 232 0.0 0.0 0.00 0.00 0.00 89 1020.4
20260503054002 35 232 0.0 0.0 0.00 0.00 0.00 89 1020.5
20260503053001 36 232 0.0 0.0 0.00 0.00 0.00 88 1020.5
20260503052002 36 232 0.0 0.0 0.00 0.00 0.00 88 1020.6
20260503051003 36 232 0.0 0.0 0.00 0.00 0.00 87 1020.7
20260503050002 37 232 0.0 0.0 0.00 0.00 0.00 87 1020.7
20260503045002 37 232 0.0 0.0 0.00 0.00 0.00 85 1020.7
20260503043003 38 232 0.0 0.0 0.00 0.00 0.00 84 1020.8
20260503042002 39 232 0.0 0.0 0.00 0.00 0.00 83 1020.8
20260503041002 39 232 0.0 0.0 0.00 0.00 0.00 83 1020.9
20260503040001 40 232 0.0 0.0 0.00 0.00 0.00 82 1020.8
20260503035002 40 232 0.0 0.0 0.00 0.00 0.00 81 1020.9
20260503034002 40 232 0.0 0.0 0.00 0.00 0.00 81 1020.9
20260503032002 41 232 0.0 0.0 0.00 0.00 0.00 79 1021.0
20260503030002 41 232 0.0 0.0 0.00 0.00 0.00 77 1020.9
20260503025002 42 232 0.0 0.0 0.00 0.00 0.00 77 1021.1
20260503023002 42 232 0.0 0.0 0.00 0.00 0.00 76 1021.3